User: anonymous   Login
Location: Unspecified
(0.0000°N, 0.0000°E)
Time: 13:02:34
(UTC+00:00)
Language:

GALAXY 17 - Orbit

View from above orbital plane
View from above orbital plane
View from above satellite
View from above satellite

Ground track
Ground track

The orbit data is extracted from the following two-line orbital elements,

1 31307U 07016B   22336.79869306 -.00000170  00000-0  00000+0 0  9990
2 31307   0.0214  26.6664 0002957 237.8357   3.6638  1.00272336 57115
Epoch (UTC): 02 December 2022 19:10:07
Eccentricity: 0.0002957
inclination: 0.0214°
perigee height: 35773 km
apogee height: 35798 km
right ascension of ascending node: 26.6664°
argument of perigee: 237.8357°
revolutions per day: 1.00272336
mean anomaly at epoch: 3.6638°
orbit number at epoch: 5711

The dashed part of the orbit path shows where the satellite is in the earth's shadow,  

DLR